Location: Belfast
(54.5830°N, 5.9330°W)
Time: 10:49:30
(UTC+01:00)

Coronas F rocket - Visible Passes

Search period start: 02 July 2015 00:00
Search period end: 12 July 2015 00:00
Orbit: 363 x 379 km, 82.5° (Epoch: 01 July)

Date Brightness Start Highest point End Pass type
(mag) Time Alt. Az. Time Alt. Az. Time Alt. Az.
02 Jul 4.5 02:14:02 10° E 02:14:17 10° E 02:14:39 10° ENE visible
02 Jul 1.7 03:43:41 10° SSW 03:46:37 59° WNW 03:49:33 10° N visible
03 Jul 3.1 02:44:11 10° SSE 02:46:42 28° E 02:49:18 10° NNE visible
04 Jul 1.5 03:16:45 13° SSW 03:19:17 84° WNW 03:22:15 10° N visible
05 Jul 3.5 02:17:15 11° SE 02:19:24 21° E 02:21:44 10° NE visible
05 Jul 3.0 03:49:31 10° SW 03:52:04 25° WNW 03:54:36 10° N visible
06 Jul 1.6 02:49:46 17° S 02:51:53 68° E 02:54:50 10° NNE visible
07 Jul 3.9 01:50:12 10° SE 01:52:02 16° E 01:53:58 10° NE visible
07 Jul 2.6 03:22:14 13° SW 03:24:34 34° WNW 03:27:18 10° N visible
08 Jul 2.1 02:22:38 20° SSE 02:24:26 47° E 02:27:18 10° NNE visible
08 Jul 4.0 03:55:58 10° W 03:57:29 13° WNW 03:58:56 10° NNW visible
09 Jul 4.1 01:23:22 10° ESE 01:24:36 12° E 01:25:55 10° ENE visible
09 Jul 2.1 02:55:03 18° SW 02:57:00 46° WNW 02:59:52 10° N visible
10 Jul 2.6 01:55:24 20° SSE 01:56:54 34° E 01:59:38 10° NNE visible
10 Jul 3.7 03:27:46 10° WSW 03:29:48 17° WNW 03:31:47 10° NNW visible
11 Jul 1.6 02:27:44 23° SSW 02:29:22 66° WNW 02:32:19 10° N visible
